Vorticity
9 13 15 15 19 25 33 40 42 43 43 38 31 28 27 19 4 -8 -11 -6 5 15 17 8 -3 -7 -7 -6 -2 5 11 13 11 11 11 8 5 4 4 6 5 5 4 7 16 17 9 10 12 8 8 8 8 9 9 8 8 8 10 11 12 12 12
5 7 10 12 15 17 21 29 36 40 42 43 39 32 29 32 30 19 3 -9 -13 -6 7 17 16 10 5 1 -4 -9 -12 -12 -12 -11 -9 -8 -5 1 6 6 3 5 5 6 18 19 3 2 8 6 7 9 6 6 5 3 4 6 8 11 15 16 15
9 8 8 8 10 13 15 19 26 33 38 39 41 39 33 30 32 33 27 15 4 -5 -8 1 14 20 21 19 17 14 10 4 0 -1 -1 -0 2 4 5 4 2 3 4 6 14 14 4 5 10 7 5 5 3 3 1 1 4 7 10 13 17 19 17
12 12 11 9 9 10 11 12 15 22 30 34 36 38 38 34 31 34 36 32 25 16 4 -4 -2 6 14 19 21 22 24 24 22 22 21 21 22 17 8 6 7 7 8 8 9 8 2 4 10 9 5 3 5 6 3 3 8 12 15 17 17 16 16
12 12 12 11 10 10 9 10 11 12 17 23 28 32 36 37 35 33 36 38 36 31 25 15 4 -2 -2 3 9 13 16 20 22 24 25 25 25 21 14 10 9 9 12 13 12 8 2 1 6 7 6 6 8 8 5 5 11 16 16 15 14 14 14
11 10 9 8 8 10 10 9 10 11 11 13 17 22 26 31 36 35 33 35 36 34 32 27 21 13 6 2 2 2 3 7 11 14 17 18 17 18 18 16 12 10 10 11 11 8 4 3 3 3 5 7 7 7 3 4 12 16 13 10 11 12 12
11 10 8 7 5 6 9 9 8 10 10 10 11 13 15 18 24 29 31 32 33 34 34 31 26 20 15 11 9 8 5 1 1 2 4 8 9 9 10 12 14 13 11 11 11 7 5 5 5 3 3 4 5 5 3 7 15 13 5 4 5 6 8
10 10 9 9 7 6 7 7 7 7 8 9 9 9 10 11 11 15 19 23 26 30 33 35 34 31 25 17 12 14 16 13 8 3 1 -0 1 5 7 7 8 10 11 13 15 15 13 10 8 8 4 2 4 6 7 11 13 5 -0 3 4 2 3
10 9 9 8 8 8 8 8 8 7 6 5 6 6 6 7 8 8 9 11 14 18 23 28 33 37 40 37 28 21 19 20 19 15 12 9 5 4 6 7 8 8 8 10 11 13 14 12 10 7 1 -0 4 8 11 11 7 0 -1 2 3 1 4
14 11 9 9 8 8 8 9 9 9 8 7 6 6 5 5 5 6 6 6 6 7 10 13 17 21 27 34 37 35 31 31 31 27 22 19 17 13 10 8 8 8 8 8 9 10 11 12 13 7 0 2 6 6 9 11 10 3 -2 -2 -4 -4 4
15 13 11 10 10 10 10 9 8 8 8 8 8 7 6 6 6 5 5 4 5 5 5 6 7 9 11 13 19 24 27 30 34 37 32 23 18 18 16 13 10 9 8 7 6 6 6 8 12 14 12 12 9 6 7 11 11 6 1 -1 -5 -4 4
12 12 12 12 12 12 13 12 11 9 7 8 8 8 8 7 7 8 7 5 5 4 5 6 7 8 9 10 9 11 13 15 19 28 36 35 26 17 12 12 12 11 10 10 8 7 5 4 6 10 12 11 8 7 7 8 8 5 4 3 -0 2 7
13 13 13 14 14 14 14 14 14 13 11 10 8 8 8 8 8 8 8 8 7 5 4 5 6 8 10 12 12 11 11 12 12 13 21 33 37 30 17 7 7 10 10 10 11 11 10 8 6 5 4 5 7 7 7 9 10 8 7 5 4 6 8
17 17 16 17 17 17 17 17 16 13 10 8 8 7 7 7 6 6 6 7 9 10 12 13 14 15 15 15 16 15 13 12 13 12 12 17 28 37 34 17 7 9 12 11 10 11 11 12 11 9 8 8 11 11 9 11 12 11 11 9 7 6 7
17 16 16 14 13 12 11 10 9 9 9 9 9 8 8 10 13 15 17 20 21 22 23 24 26 25 23 20 19 19 19 16 13 13 12 11 15 26 37 33 17 9 12 15 13 11 11 12 11 11 11 13 14 14 11 9 7 8 11 11 7 6 7
10 10 11 11 10 11 12 13 15 16 17 19 20 21 22 24 26 27 28 30 31 31 31 30 30 29 28 27 25 23 23 21 18 16 14 13 12 14 25 35 30 17 13 16 16 13 11 11 10 8 9 11 14 13 11 10 8 6 7 10 10 10 12
16 18 20 22 24 24 24 25 25 25 26 27 27 25 24 25 27 29 31 31 29 29 29 27 25 25 25 25 27 27 27 25 23 22 18 15 13 12 15 25 31 25 17 16 17 15 12 10 7 6 7 11 15 16 12 11 11 6 6 12 14 11 11
28 27 25 24 23 24 25 25 25 24 23 20 17 17 22 30 35 35 33 29 25 22 22 21 21 22 21 19 21 23 27 31 30 28 25 21 17 14 13 18 26 26 21 18 18 14 11 10 6 4 10 15 16 13 10 10 10 7 8 13 14 9 6
16 15 14 13 13 16 18 18 18 17 19 21 21 26 31 32 30 27 22 18 16 16 16 15 14 14 16 19 20 19 20 26 31 32 31 29 25 20 16 17 22 24 23 22 20 14 10 8 4 4 11 16 13 8 7 9 9 9 11 12 11 10 10
6 6 8 11 14 17 18 20 23 26 28 29 26 23 20 15 13 13 12 11 13 15 16 18 18 18 19 19 23 27 26 23 27 31 31 31 33 30 23 21 23 25 25 24 20 13 8 5 4 5 8 11 10 8 10 9 7 9 13 12 10 10 12
7 11 15 19 23 25 23 22 24 24 22 19 16 11 10 13 15 14 13 16 20 21 23 24 21 18 14 8 16 35 44 37 31 30 26 26 32 33 28 24 22 22 25 26 20 14 10 6 3 4 7 10 9 8 11 12 10 11 13 12 11 12 14
13 25 28 30 33 30 20 15 15 17 17 18 17 16 15 17 19 20 24 29 25 18 17 17 14 12 10 8 17 36 46 44 38 33 29 29 32 34 30 26 24 22 24 26 23 16 12 7 2 3 10 13 12 13 16 18 17 15 13 11 11 12 13
24 29 21 20 20 10 4 11 18 20 21 19 13 8 8 12 15 16 18 19 15 13 18 23 23 21 19 22 27 27 29 36 39 34 33 36 36 35 31 25 23 22 22 26 26 19 15 10 4 5 11 13 12 15 17 18 17 14 11 12 12 12 12
27 19 9 12 9 -5 -2 14 20 18 16 13 7 4 7 13 14 12 12 13 13 14 16 21 25 25 20 21 24 18 13 21 24 22 28 35 33 31 28 24 22 24 24 27 27 22 19 14 9 9 13 14 15 16 14 13 13 12 13 14 13 12 10
20 11 7 7 1 -1 10 21 20 18 16 10 4 5 9 14 16 16 17 18 16 14 10 10 17 24 22 18 17 17 17 18 14 10 19 31 31 26 24 23 23 23 22 23 22 19 16 12 9 12 14 13 12 11 10 11 12 13 14 13 10 8 8
10 5 5 6 7 15 24 22 15 12 9 5 5 8 9 11 13 15 16 17 19 20 17 12 11 19 26 23 17 14 16 18 15 10 12 19 19 17 19 21 21 20 21 21 20 17 13 9 8 11 12 11 10 9 10 12 12 12 12 10 8 8 7
5 4 7 14 20 21 18 13 9 6 4 5 9 9 9 11 14 15 16 20 23 21 17 14 12 14 20 25 24 18 13 16 21 22 21 18 13 11 15 17 17 17 18 16 13 12 12 11 10 10 10 11 12 11 11 11 9 9 9 7 6 6 4
6 12 14 17 17 12 6 4 4 5 8 11 11 10 12 16 19 18 17 19 22 20 14 12 13 13 13 18 22 20 16 16 19 23 26 24 18 13 13 12 11 11 9 6 6 8 10 11 10 10 11 12 11 9 8 8 6 5 4 3 2 2 2
9 15 15 13 10 7 6 6 8 12 16 16 14 14 18 21 20 17 14 13 15 18 18 17 18 18 17 17 19 19 16 13 13 16 21 22 19 16 14 11 10 9 7 7 9 11 12 12 12 13 13 11 9 7 5 3 2 2 1 1 2 4 6
18 14 10 9 10 12 15 15 16 18 18 18 19 18 20 20 16 10 8 9 11 13 15 16 16 15 16 18 22 23 21 17 15 15 16 17 17 17 15 13 12 10 10 12 13 12 12 12 11 10 9 7 5 4 3 2 2 3 4 6 8 10 12
16 12 13 17 17 17 18 19 21 22 22 22 22 20 18 16 12 8 7 7 8 10 11 11 10 9 9 13 16 17 18 18 17 16 15 15 16 15 15 14 13 12 12 11 10 9 8 7 6 5 4 4 4 4 5 6 8 10 11 13 14 14 15
8 6 10 17 18 15 15 16 17 18 20 20 16 14 14 13 10 8 7 4 4 7 9 10 10 8 8 9 7 8 11 13 13 14 14 13 12 11 10 9 8 7 7 6 5 6 5 4 6 6 6 8 9 10 12 13 14 15 14 14 15 15 15
12 8 7 11 15 17 19 17 11 6 7 10 11 11 11 10 8 8 8 6 7 8 8 9 9 8 8 9 7 7 11 12 13 15 14 14 14 12 11 11 10 9 9 9 9 10 10 10 11 12 13 14 14 14 15 14 13 13 14 14 15 15 14
16 14 10 9 10 12 15 14 10 7 6 7 9 10 9 9 10 12 10 6 5 7 8 9 9 8 9 10 8 8 10 11 12 15 15 15 16 15 14 15 14 14 14 14 14 15 15 15 15 15 14 14 13 12 12 13 14 15 16 15 14 11 8
17 16 14 10 6 7 10 9 7 8 8 7 7 8 8 9 12 15 14 11 8 7 8 10 10 9 10 11 9 8 7 6 8 12 13 13 13 13 12 13 13 12 13 13 13 14 14 13 13 13 12 12 13 14 15 16 16 15 12 9 8 6 6
16 18 18 15 10 6 5 3 4 5 6 6 6 7 9 12 14 15 15 14 11 9 8 8 10 10 10 10 10 8 8 7 8 10 12 12 11 11 11 11 12 12 13 13 13 13 13 12 13 13 14 15 16 15 15 13 10 8 7 6 7 8 9
Height
5297 5298 5299 5299 5300 5302 5304 5306 5309 5313 5318 5323 5328 5334 5339 5345 5349 5354 5361 5365 5369 5374 5378 5382 5387 5392 5397 5400 5403 5406 5410 5413 5417 5421 5424 5427 5427 5429 5433 5437 5441 5445 5450 5457 5462 5467 5470 5472 5473 5476 5478 5480 5482 5485 5487 5490 5492 5494 5496 5497 5498 5499 5500
5293 5293 5294 5295 5296 5297 5299 5300 5302 5305 5309 5314 5319 5323 5328 5332 5337 5342 5348 5353 5358 5363 5367 5371 5375 5380 5385 5388 5391 5395 5399 5402 5407 5411 5414 5417 5420 5421 5425 5429 5431 5434 5439 5446 5452 5457 5461 5463 5464 5467 5469 5471 5474 5476 5478 5481 5484 5486 5488 5489 5490 5490 5491
5288 5289 5290 5291 5292 5293 5294 5296 5297 5299 5302 5306 5310 5314 5317 5321 5325 5331 5336 5341 5346 5352 5356 5359 5364 5369 5373 5376 5378 5383 5387 5391 5396 5400 5403 5407 5411 5413 5417 5420 5422 5423 5427 5435 5442 5447 5452 5454 5456 5458 5460 5462 5465 5467 5470 5473 5475 5477 5479 5480 5481 5482 5483
5284 5284 5285 5286 5287 5289 5290 5291 5293 5294 5296 5299 5302 5305 5308 5312 5315 5320 5325 5330 5335 5339 5343 5347 5353 5359 5362 5364 5367 5371 5376 5380 5385 5389 5393 5397 5400 5404 5407 5410 5412 5413 5417 5424 5431 5437 5441 5444 5447 5449 5451 5454 5456 5459 5462 5464 5466 5468 5470 5471 5472 5473 5475
5280 5280 5281 5282 5283 5284 5285 5287 5288 5290 5291 5293 5296 5298 5300 5303 5307 5311 5315 5320 5324 5328 5332 5336 5341 5346 5350 5352 5356 5361 5366 5370 5374 5378 5382 5385 5389 5394 5397 5400 5402 5404 5406 5412 5419 5426 5430 5434 5437 5440 5443 5446 5448 5450 5453 5455 5457 5460 5461 5463 5464 5465 5467
5276 5277 5277 5278 5279 5280 5281 5282 5284 5285 5287 5289 5290 5292 5294 5296 5299 5303 5306 5309 5313 5316 5320 5324 5329 5333 5336 5340 5345 5351 5355 5359 5363 5367 5371 5375 5379 5383 5387 5390 5393 5395 5397 5401 5407 5414 5419 5424 5428 5431 5434 5437 5440 5441 5444 5446 5449 5451 5453 5454 5456 5457 5459
5272 5272 5273 5273 5274 5275 5277 5278 5279 5281 5282 5284 5286 5288 5289 5291 5293 5295 5298 5300 5303 5306 5309 5313 5317 5321 5324 5328 5334 5339 5343 5347 5351 5355 5360 5364 5369 5372 5375 5379 5383 5386 5388 5390 5395 5402 5408 5414 5418 5422 5425 5428 5430 5432 5435 5438 5441 5443 5444 5446 5448 5450 5451
5267 5268 5268 5269 5270 5271 5272 5274 5275 5276 5278 5279 5281 5282 5284 5285 5287 5289 5291 5293 5295 5297 5300 5303 5307 5310 5313 5317 5322 5326 5330 5333 5338 5343 5348 5353 5357 5361 5365 5369 5373 5376 5379 5381 5385 5391 5397 5403 5408 5412 5416 5418 5421 5425 5428 5429 5431 5432 5435 5437 5440 5442 5443
5262 5263 5263 5264 5265 5266 5268 5269 5270 5272 5273 5274 5275 5276 5278 5279 5281 5282 5284 5286 5288 5290 5292 5295 5297 5300 5303 5306 5310 5313 5317 5320 5325 5330 5336 5341 5346 5350 5354 5358 5362 5366 5369 5373 5376 5381 5387 5393 5399 5403 5407 5411 5414 5416 5418 5418 5420 5423 5427 5429 5432 5434 5435
5257 5257 5258 5259 5260 5261 5263 5264 5265 5266 5267 5268 5269 5270 5271 5272 5274 5276 5278 5280 5281 5283 5285 5287 5289 5291 5293 5295 5298 5302 5305 5308 5313 5318 5323 5328 5332 5337 5342 5347 5351 5355 5359 5363 5367 5371 5377 5384 5390 5396 5400 5404 5405 5406 5406 5408 5412 5415 5418 5420 5423 5425 5426
5251 5251 5252 5253 5255 5256 5257 5258 5259 5260 5261 5261 5262 5262 5264 5266 5267 5269 5272 5273 5275 5277 5278 5279 5281 5283 5284 5286 5289 5292 5295 5297 5301 5306 5311 5315 5319 5325 5330 5335 5340 5345 5349 5353 5357 5362 5367 5374 5381 5387 5392 5395 5395 5395 5397 5399 5403 5406 5409 5412 5414 5416 5417
5245 5246 5247 5248 5249 5250 5251 5252 5252 5253 5254 5255 5255 5256 5257 5259 5260 5262 5264 5267 5268 5270 5271 5272 5273 5275 5276 5278 5281 5283 5285 5288 5291 5294 5298 5303 5308 5312 5317 5323 5328 5333 5338 5343 5347 5352 5358 5365 5372 5377 5383 5386 5385 5386 5388 5390 5394 5398 5401 5403 5405 5408 5408
5240 5241 5241 5242 5243 5244 5244 5245 5245 5246 5247 5248 5249 5249 5250 5251 5254 5255 5257 5259 5261 5262 5262 5263 5265 5266 5268 5270 5272 5274 5276 5279 5281 5284 5288 5292 5296 5301 5306 5312 5318 5322 5327 5332 5337 5343 5349 5356 5361 5367 5374 5377 5376 5376 5380 5382 5385 5389 5392 5393 5396 5399 5399
5234 5235 5235 5237 5238 5238 5239 5239 5239 5239 5240 5240 5241 5242 5242 5244 5246 5248 5249 5250 5251 5252 5253 5254 5254 5256 5259 5260 5261 5264 5267 5269 5271 5274 5278 5281 5286 5291 5296 5302 5307 5312 5318 5322 5328 5334 5341 5346 5352 5357 5363 5366 5366 5368 5371 5374 5377 5379 5382 5386 5388 5390 5390
5229 5230 5230 5231 5232 5233 5234 5233 5233 5233 5233 5233 5234 5234 5234 5235 5237 5239 5240 5241 5241 5242 5243 5244 5244 5246 5248 5249 5251 5253 5256 5259 5261 5264 5268 5272 5276 5281 5286 5291 5297 5303 5309 5314 5319 5326 5332 5337 5343 5348 5353 5356 5357 5360 5363 5365 5368 5371 5374 5378 5380 5382 5381
5225 5225 5226 5226 5227 5227 5228 5227 5227 5227 5227 5227 5227 5226 5226 5227 5228 5230 5231 5232 5232 5233 5234 5235 5236 5236 5237 5239 5241 5243 5246 5248 5251 5254 5258 5262 5267 5271 5276 5282 5287 5293 5300 5305 5310 5317 5323 5329 5335 5339 5343 5346 5349 5352 5355 5358 5360 5363 5367 5370 5372 5373 5372
5221 5221 5221 5221 5222 5222 5222 5222 5221 5221 5222 5222 5221 5220 5220 5221 5222 5223 5224 5225 5226 5226 5227 5228 5228 5228 5229 5230 5232 5235 5237 5239 5241 5244 5248 5253 5258 5262 5267 5272 5278 5284 5291 5297 5302 5309 5316 5322 5326 5330 5334 5338 5342 5346 5348 5350 5353 5356 5360 5363 5364 5364 5364
5218 5218 5217 5218 5217 5218 5218 5217 5216 5216 5217 5217 5216 5216 5216 5216 5217 5218 5219 5220 5220 5221 5221 5222 5222 5223 5223 5225 5226 5228 5229 5230 5233 5235 5239 5244 5249 5254 5259 5264 5270 5275 5282 5289 5295 5303 5310 5314 5318 5323 5328 5332 5336 5338 5340 5343 5346 5350 5353 5355 5356 5356 5357
5215 5215 5215 5215 5215 5214 5214 5214 5213 5213 5213 5213 5213 5212 5213 5213 5214 5215 5216 5216 5217 5217 5217 5218 5218 5218 5219 5220 5221 5221 5221 5222 5224 5227 5231 5236 5241 5246 5251 5257 5262 5267 5274 5282 5289 5297 5303 5308 5312 5317 5321 5325 5328 5330 5333 5336 5340 5343 5346 5347 5347 5349 5351
5214 5213 5213 5212 5212 5211 5211 5211 5211 5210 5210 5210 5210 5211 5211 5211 5212 5213 5213 5213 5213 5213 5213 5213 5213 5214 5214 5214 5214 5214 5214 5215 5218 5221 5224 5229 5234 5239 5244 5249 5255 5260 5267 5276 5283 5290 5296 5301 5306 5310 5315 5318 5321 5324 5327 5330 5333 5336 5338 5339 5340 5342 5343
5212 5212 5211 5210 5209 5209 5209 5209 5209 5209 5209 5209 5209 5209 5209 5209 5209 5209 5209 5209 5209 5209 5209 5209 5209 5209 5209 5209 5209 5208 5207 5209 5212 5214 5218 5222 5227 5231 5236 5242 5248 5254 5261 5270 5277 5284 5290 5295 5300 5305 5310 5313 5315 5318 5321 5324 5327 5329 5331 5332 5333 5334 5335
5210 5209 5208 5207 5207 5207 5208 5208 5208 5208 5208 5208 5208 5208 5208 5207 5207 5207 5206 5206 5207 5207 5207 5206 5205 5205 5205 5205 5205 5204 5203 5204 5206 5210 5213 5217 5221 5225 5231 5237 5243 5249 5256 5264 5272 5278 5285 5291 5296 5301 5305 5308 5310 5312 5315 5318 5320 5322 5324 5325 5326 5327 5328
5208 5207 5206 5206 5206 5207 5207 5207 5207 5207 5207 5207 5207 5207 5206 5206 5206 5205 5205 5205 5205 5205 5204 5204 5203 5202 5203 5203 5203 5202 5201 5202 5204 5207 5210 5213 5217 5223 5228 5234 5240 5246 5253 5260 5267 5274 5281 5287 5293 5297 5300 5302 5304 5307 5310 5312 5314 5315 5317 5318 5319 5320 5321
5206 5206 5205 5205 5205 5206 5206 5206 5206 5205 5206 5206 5206 5206 5206 5205 5205 5205 5204 5204 5204 5203 5203 5202 5202 5202 5202 5202 5202 5202 5202 5202 5204 5206 5209 5212 5216 5222 5227 5232 5239 5245 5252 5259 5266 5272 5278 5284 5288 5292 5295 5297 5299 5302 5304 5306 5308 5309 5310 5311 5312 5313 5314
5205 5205 5205 5205 5205 5205 5205 5205 5205 5205 5205 5205 5205 5205 5205 5205 5205 5204 5204 5203 5203 5202 5202 5202 5202 5202 5202 5202 5202 5202 5203 5204 5206 5208 5210 5213 5218 5223 5228 5234 5240 5246 5252 5258 5264 5270 5275 5280 5284 5287 5290 5292 5294 5297 5299 5300 5302 5303 5304 5305 5306 5306 5307
5205 5205 5205 5205 5205 5205 5205 5205 5205 5205 5205 5205 5205 5205 5205 5204 5204 5203 5203 5203 5202 5202 5202 5202 5202 5202 5202 5202 5202 5203 5205 5207 5208 5210 5213 5216 5221 5225 5230 5235 5241 5246 5252 5257 5262 5267 5272 5276 5280 5283 5285 5287 5289 5291 5293 5294 5296 5297 5298 5299 5299 5300 5301
5205 5205 5204 5204 5204 5205 5205 5205 5205 5205 5205 5205 5205 5204 5204 5204 5204 5203 5203 5202 5202 5202 5202 5202 5202 5202 5202 5202 5203 5205 5207 5208 5210 5213 5216 5219 5223 5226 5231 5236 5241 5246 5251 5256 5260 5264 5268 5272 5276 5279 5281 5282 5284 5286 5287 5289 5290 5291 5292 5292 5292 5293 5293
5205 5205 5204 5204 5204 5205 5205 5205 5205 5205 5205 5205 5204 5204 5204 5204 5204 5204 5203 5203 5203 5203 5202 5202 5203 5203 5203 5204 5205 5206 5208 5210 5213 5215 5218 5221 5224 5228 5233 5237 5241 5246 5250 5254 5258 5262 5266 5269 5272 5274 5276 5278 5279 5281 5282 5283 5284 5285 5285 5285 5285 5286 5285
5206 5205 5205 5205 5205 5205 5205 5205 5205 5205 5205 5204 5204 5204 5205 5204 5204 5205 5205 5204 5204 5204 5204 5204 5204 5205 5205 5206 5207 5208 5210 5212 5214 5217 5219 5222 5226 5230 5234 5238 5241 5245 5249 5253 5257 5260 5263 5265 5267 5269 5271 5273 5274 5276 5277 5278 5278 5279 5279 5279 5279 5278 5278
5206 5206 5206 5206 5205 5205 5205 5205 5204 5204 5204 5204 5204 5205 5205 5205 5205 5206 5206 5206 5206 5206 5206 5207 5207 5207 5208 5208 5209 5211 5212 5214 5216 5219 5221 5224 5228 5231 5234 5238 5241 5245 5248 5251 5254 5257 5259 5261 5263 5265 5266 5268 5269 5271 5271 5272 5272 5272 5273 5273 5272 5272 5271
5207 5207 5207 5206 5206 5205 5205 5205 5205 5205 5205 5205 5205 5206 5206 5206 5207 5207 5207 5207 5208 5208 5208 5209 5209 5210 5210 5211 5212 5213 5215 5216 5219 5221 5223 5226 5229 5232 5235 5238 5241 5244 5246 5249 5251 5253 5255 5257 5259 5261 5262 5263 5264 5265 5266 5266 5267 5267 5267 5266 5266 5265 5265
5208 5208 5208 5207 5207 5207 5206 5206 5206 5206 5206 5206 5207 5207 5208 5208 5208 5209 5209 5209 5209 5209 5210 5210 5211 5212 5212 5213 5214 5215 5217 5218 5220 5222 5224 5227 5229 5232 5234 5237 5239 5242 5244 5246 5248 5250 5252 5254 5255 5256 5258 5259 5260 5260 5261 5261 5261 5261 5261 5261 5260 5259 5259
5209 5209 5209 5209 5208 5208 5208 5207 5207 5208 5208 5208 5209 5209 5210 5210 5210 5210 5210 5210 5210 5211 5211 5212 5213 5213 5214 5215 5216 5217 5219 5220 5222 5223 5225 5227 5229 5231 5234 5236 5238 5240 5242 5244 5245 5247 5249 5250 5251 5252 5254 5254 5255 5255 5256 5256 5256 5256 5255 5255 5255 5254 5253
5210 5210 5210 5210 5210 5209 5209 5209 5209 5209 5209 5210 5210 5211 5211 5211 5211 5211 5211 5212 5212 5212 5213 5213 5214 5215 5216 5217 5218 5219 5220 5221 5223 5224 5226 5227 5229 5231 5233 5235 5236 5238 5240 5241 5243 5244 5245 5246 5247 5248 5249 5250 5250 5250 5250 5251 5251 5251 5250 5250 5249 5249 5247
5211 5211 5211 5211 5211 5211 5211 5210 5210 5210 5210 5211 5211 5211 5212 5212 5212 5212 5213 5213 5213 5213 5214 5215 5215 5216 5217 5218 5219 5220 5221 5222 5223 5225 5226 5227 5229 5230 5232 5233 5235 5236 5237 5238 5240 5241 5241 5242 5243 5244 5245 5245 5245 5246 5246 5246 5246 5246 5246 5245 5244 5243 5241
5213 5212 5212 5212 5211 5211 5211 5211 5211 5211 5211 5211 5211 5212 5212 5212 5213 5213 5213 5213 5214 5214 5215 5215 5216 5217 5218 5219 5220 5221 5222 5223 5224 5225 5226 5227 5228 5229 5231 5232 5233 5234 5235 5235 5236 5237 5238 5239 5239 5240 5240 5241 5242 5242 5242 5242 5242 5241 5240 5239 5238 5236 5234